Вернуться в каталог

DELTA 1 DEB

АктивенPO
NORAD 42633·DEBRIS·🇺🇸 United States

Запущен Jun 12, 1975 с Vandenberg Space Force Base

Loading…

Ближайшие Пролёты (ближайшие 24 часа)

TLE

СвежийSource: Space-Track

Эпоха: Sep 13, 2026, 07:54 UTC

1 42633U 75052LS  26256.32945737  .00000216  00000-0  56200-3 0  9993
2 42633  99.6531  93.9419 0123878 165.9626 194.4988 13.25653343619118

Отслеживайте DELTA 1 DEB в реальном времени с AllMySat

Download on the App Store